Location: ??????????
(48.5701°N, 37.7703°E)
Time: 20:58:07
(UTC+00:00)

Cosmos 1954 Rocket - Visible Passes

Search period start: 23 October 2020 00:00
Search period end: 02 November 2020 00:00
Orbit: 753 x 781 km, 74.0° (Epoch: 22 October)

Date Brightness Start Highest point End Pass type
(mag) Time Alt. Az. Time Alt. Az. Time Alt. Az.
23 Oct 7.3 03:21:50 10° SE 03:24:43 15° E 03:27:36 10° ENE visible
23 Oct 6.4 15:25:15 10° NW 15:29:36 27° W 15:33:57 10° SSW visible
24 Oct 5.4 14:47:25 10° NW 14:52:21 44° WSW 14:57:17 10° S visible
25 Oct 7.8 15:55:14 10° W 15:56:03 10° W 15:56:52 10° W visible
26 Oct 6.8 03:10:03 10° SSE 03:14:05 23° E 03:18:07 10° NE visible
26 Oct 7.2 15:15:34 10° NW 15:18:59 18° W 15:22:25 10° SW visible
27 Oct 7.3 02:34:18 10° SE 02:36:58 14° E 02:39:37 10° ENE visible
28 Oct 4.8 03:35:45 10° S 03:40:49 59° ESE 03:45:55 10° NNE visible
29 Oct 5.8 02:58:50 10° SSE 03:03:31 36° ESE 03:08:12 10° NE visible
29 Oct 7.6 15:06:51 10° WNW 15:08:18 11° W 15:09:46 10° WSW visible
30 Oct 6.6 02:22:24 10° SSE 02:26:19 22° E 02:30:14 10° NE visible
31 Oct 7.1 01:46:48 10° ESE 01:49:12 13° E 01:51:37 10° ENE visible
31 Oct 4.0 03:25:15 10° SSW 03:30:26 90° NNE 03:35:38 10° NNE visible
01 Nov 4.7 02:48:00 10° S 02:53:01 56° ESE 02:58:05 10° NNE visible
